Location: B?jaj?g
(11.7167°N, 92.6667°E)
Time: 13:20:19
(UTC+00:00)

Cosmos 1605 Rocket - Pass Details

Date: 18 September 2020
Orbit: 946 x 1005 km, 82.9° (Epoch: 21 October)

Event Time Altitude Azimuth Distance (km) Brightness Sun altitude
Rises 22:20:10 0° 349° (NNW) 3,721 7.0 -20.0°
Reaches altitude 10° 22:22:44 10° 345° (NNW) 2,772 6.3 -19.4°
Maximum altitude 22:28:58 57° 268° (W) 1,161 4.0 -17.8°
Drops below altitude 10° 22:35:10 10° 190° (S) 2,756 6.2 -16.3°
Sets 22:37:43 0° 186° (S) 3,698 6.9 -15.7°
